Tracking 28790 objects as of 18-Apr-2024
HD Live streaming from Space Station
objects crossing your sky now

COSMOS 2251 DEB

Track COSMOS 2251 DEB now!
10-day predictions


NORAD ID: 35476
Int'l Code: 1993-036ALW
Perigee: 693.4 km
Apogee: 735.2 km
Inclination: 74.0 °
Period: 98.9 minutes
Semi major axis: 7085 km
RCS: 0.0176 m2 (small)
Launch date: June 16, 1993
Source: Commonwealth of Independent States (former USSR) (CIS)
Launch site: PLESETSK MISSILE AND SPACE COMPLEX (PKMTR)

Note: This is SATELLITE DEBRIS
Your satellite tracking list
Your tracking list is empty




NASA's NSSDC Master Catalog

Two Line Element Set (TLE):
1 35476U 93036ALW 24109.16925405  .00014336  00000-0  32615-2 0  9990
2 35476  73.9846 147.8141 0029528 288.7659 128.5933 14.55675174790429
Source of the keplerian elements: AFSPC